QPF
0.05 0.05 0.04 0.06 0.11 0.10 0.07 0.07 0.08 0.05 0.03 0.03 0.03 0.04 0.03 0.03 0.03 0.03 0.03 0.04 0.03 0.03 0.04 0.04 0.05 0.06 0.06 0.06 0.05 0.05 0.05 0.05 0.05 0.07 0.07 0.06 0.04 0.03 0.03 0.04 0.06 0.05 0.05
0.05 0.05 0.05 0.06 0.08 0.10 0.10 0.07 0.05 0.04 0.03 0.03 0.03 0.03 0.02 0.02 0.02 0.02 0.02 0.03 0.02 0.02 0.02 0.02 0.03 0.04 0.04 0.05 0.05 0.04 0.04 0.04 0.04 0.05 0.07 0.07 0.06 0.04 0.02 0.03 0.04 0.04 0.06
0.04 0.05 0.07 0.05 0.04 0.06 0.08 0.06 0.03 0.03 0.03 0.03 0.02 0.02 0.01 0.01 0.01 0.01 0.01 0.01 0.01 0.01 0.01 0.01 0.01 0.01 0.02 0.02 0.02 0.02 0.04 0.03 0.02 0.03 0.05 0.05 0.06 0.05 0.04 0.02 0.03 0.03 0.05
0.02 0.06 0.08 0.04 0.03 0.03 0.04 0.04 0.02 0.02 0.02 0.02 0.02 0.01 0.01 0.01 0.01 0.00 0.00 0.00 0.00 0.01 0.01 0.01 0.01 0.01 0.01 0.01 0.01 0.01 0.02 0.02 0.01 0.01 0.01 0.02 0.03 0.04 0.05 0.04 0.03 0.03 0.04
0.01 0.04 0.07 0.04 0.01 0.01 0.02 0.02 0.01 0.01 0.01 0.01 0.01 0.01 0.00 0.00 0.00 0.00 0.00 0.00 0.00 0.00 0.01 0.01 0.01 0.01 0.01 0.01 0.01 0.01 0.01 0.01 0.01 0.01 0.01 0.01 0.01 0.02 0.03 0.03 0.03 0.03 0.03
0.01 0.02 0.03 0.03 0.01 0.01 0.01 0.01 0.00 0.00 0.00 0.00 0.00 0.00 0.00 0.00 0.00 0.00 0.00 0.00 0.00 0.00 0.00 0.00 0.00 0.01 0.01 0.01 0.00 0.00 0.01 0.01 0.01 0.01 0.01 0.01 0.01 0.02 0.02 0.03 0.03 0.03 0.02
0.01 0.01 0.01 0.01 0.01 0.01 0.00 0.00 0.00 0.00 0.00 0.00 0.00 0.00 0.00 0.00 0.00 0.00 0.00 0.00 0.00 0.00 0.00 0.00 0.00 0.00 0.00 0.00 0.00 0.00 0.00 0.00 0.00 0.00 0.01 0.01 0.01 0.01 0.01 0.01 0.01 0.02 0.01
0.01 0.00 0.00 0.00 0.00 0.00 0.00 0.00 0.00 0.00 0.00 0.00 0.00 0.00 0.00 0.00 0.00 0.00 0.00 0.00 0.00 0.00 0.00 0.00 0.00 0.00 0.00 0.00 0.00 0.00 0.00 0.00 0.00 0.00 0.00 0.00 0.00 0.00 0.00 0.01 0.01 0.01 0.01
0.00 0.00 0.00 0.00 0.00 0.00 0.00 0.00 0.00 0.00 0.00 0.00 0.00 0.00 0.00 0.00 0.00 0.00 0.00 0.00 0.00 0.00 0.00 0.00 0.00 0.00 0.00 0.00 0.00 0.00 0.00 0.00 0.00 0.00 0.00 0.00 0.00 0.00 0.00 0.00 0.01 0.01 0.01
0.00 0.00 0.00 0.00 0.00 0.00 0.00 0.00 0.00 0.00 0.00 0.00 0.00 0.00 0.00 0.00 0.00 0.00 0.00 0.00 0.00 0.00 0.00 0.00 0.00 0.00 0.00 0.00 0.00 0.00 0.00 0.00 0.00 0.00 0.00 0.00 0.00 0.00 0.00 0.00 0.00 0.01 0.01
0.00 0.00 0.00 0.00 0.00 0.00 0.00 0.00 0.00 0.00 0.00 0.00 0.00 0.00 0.00 0.00 0.00 0.00 0.00 0.00 0.00 0.00 0.00 0.00 0.00 0.00 0.00 0.00 0.00 0.00 0.00 0.00 0.00 0.00 0.00 0.00 0.00 0.01 0.01 0.01 0.01 0.01 0.01
0.00 0.00 0.00 0.00 0.00 0.00 0.00 0.00 0.00 0.00 0.00 0.00 0.00 0.00 0.00 0.00 0.00 0.00 0.00 0.00 0.00 0.00 0.00 0.00 0.00 0.00 0.00 0.00 0.00 0.00 0.00 0.00 0.00 0.00 0.00 0.00 0.00 0.01 0.01 0.01 0.01 0.01 0.01
0.00 0.00 0.00 0.00 0.00 0.00 0.00 0.00 0.00 0.00 0.00 0.00 0.00 0.00 0.00 0.00 0.00 0.00 0.00 0.00 0.00 0.00 0.00 0.00 0.00 0.00 0.00 0.00 0.00 0.00 0.00 0.00 0.00 0.00 0.00 0.00 0.01 0.01 0.01 0.01 0.01 0.01 0.01
0.00 0.00 0.00 0.00 0.00 0.00 0.00 0.00 0.00 0.00 0.00 0.00 0.00 0.00 0.00 0.00 0.00 0.00 0.00 0.00 0.00 0.00 0.00 0.00 0.00 0.00 0.00 0.00 0.00 0.00 0.00 0.00 0.01 0.00 0.00 0.00 0.00 0.01 0.01 0.01 0.01 0.01 0.01
0.00 0.00 0.00 0.00 0.00 0.00 0.00 0.00 0.00 0.00 0.00 0.00 0.00 0.00 0.00 0.00 0.00 0.00 0.00 0.00 0.00 0.00 0.00 0.00 0.00 0.00 0.00 0.00 0.00 0.00 0.00 0.00 0.00 0.01 0.01 0.00 0.00 0.00 0.00 0.00 0.01 0.01 0.02
0.00 0.00 0.00 0.00 0.00 0.00 0.00 0.00 0.00 0.00 0.00 0.00 0.00 0.00 0.00 0.00 0.00 0.00 0.00 0.00 0.00 0.00 0.00 0.00 0.00 0.00 0.00 0.00 0.00 0.00 0.00 0.00 0.00 0.00 0.01 0.00 0.00 0.00 0.00 0.00 0.00 0.00 0.01
0.00 0.00 0.00 0.00 0.00 0.00 0.00 0.00 0.00 0.00 0.00 0.00 0.00 0.00 0.00 0.00 0.00 0.00 0.00 0.00 0.00 0.00 0.00 0.00 0.00 0.00 0.00 0.00 0.00 0.00 0.00 0.00 0.00 0.00 0.00 0.00 0.00 0.00 0.00 0.00 0.00 0.00 0.00
0.00 0.00 0.00 0.00 0.00 0.00 0.00 0.00 0.00 0.00 0.00 0.00 0.00 0.00 0.00 0.00 0.00 0.00 0.00 0.00 0.00 0.00 0.00 0.00 0.00 0.00 0.00 0.00 0.00 0.00 0.00 0.00 0.00 0.00 0.00 0.00 0.00 0.00 0.00 0.00 0.01 0.01 0.01
0.00 0.00 0.00 0.00 0.00 0.00 0.00 0.00 0.00 0.00 0.00 0.00 0.00 0.00 0.00 0.00 0.00 0.00 0.00 0.00 0.00 0.00 0.00 0.00 0.00 0.00 0.00 0.00 0.00 0.00 0.00 0.00 0.00 0.00 0.00 0.00 0.00 0.00 0.00 0.00 0.00 0.01 0.01
0.00 0.00 0.00 0.00 0.00 0.00 0.00 0.00 0.00 0.00 0.00 0.00 0.00 0.00 0.00 0.00 0.00 0.00 0.00 0.00 0.00 0.00 0.00 0.00 0.00 0.00 0.00 0.00 0.00 0.00 0.00 0.00 0.00 0.00 0.00 0.00 0.00 0.00 0.00 0.00 0.00 0.01 0.01
0.00 0.00 0.00 0.00 0.00 0.00 0.00 0.00 0.00 0.00 0.00 0.00 0.00 0.00 0.00 0.00 0.00 0.00 0.00 0.00 0.00 0.00 0.00 0.00 0.00 0.00 0.00 0.00 0.00 0.00 0.00 0.00 0.00 0.00 0.00 0.00 0.00 0.00 0.00 0.00 0.00 0.00 0.00
0.00 0.00 0.00 0.00 0.00 0.00 0.00 0.00 0.00 0.01 0.01 0.00 0.00 0.00 0.00 0.00 0.00 0.00 0.00 0.00 0.00 0.00 0.00 0.00 0.00 0.00 0.00 0.00 0.00 0.00 0.00 0.00 0.00 0.00 0.00 0.00 0.00 0.00 0.00 0.00 0.00 0.00 0.00
0.00 0.00 0.00 0.00 0.00 0.00 0.00 0.00 0.00 0.00 0.00 0.00 0.00 0.00 0.00 0.00 0.00 0.00 0.00 0.00 0.00 0.00 0.00 0.00 0.00 0.00 0.00 0.00 0.00 0.00 0.00 0.00 0.00 0.00 0.00 0.00 0.00 0.00 0.00 0.00 0.00 0.00 0.00
0.00 0.00 0.00 0.00 0.00 0.00 0.00 0.00 0.00 0.00 0.00 0.00 0.00 0.00 0.00 0.00 0.00 0.00 0.00 0.00 0.00 0.00 0.00 0.00 0.00 0.00 0.01 0.00 0.00 0.00 0.00 0.00 0.00 0.00 0.00 0.00 0.00 0.00 0.00 0.00 0.00 0.00 0.00
0.01 0.01 0.01 0.00 0.00 0.00 0.00 0.00 0.00 0.00 0.00 0.00 0.00 0.00 0.00 0.00 0.00 0.00 0.00 0.00 0.00 0.00 0.01 0.01 0.02 0.02 0.01 0.01 0.00 0.00 0.00 0.00 0.00 0.00 0.00 0.00 0.00 0.01 0.01 0.01 0.01 0.01 0.01
0.01 0.01 0.01 0.00 0.00 0.00 0.00 0.00 0.00 0.00 0.00 0.00 0.01 0.01 0.01 0.01 0.01 0.00 0.00 0.01 0.01 0.02 0.02 0.02 0.01 0.01 0.00 0.00 0.00 0.00 0.00 0.00 0.00 0.00 0.00 0.01 0.01 0.01 0.01 0.01 0.01 0.01 0.01
MSLP
1013.69 1013.81 1013.91 1014.02 1014.14 1014.30 1014.52 1014.80 1015.14 1015.51 1015.91 1016.29 1016.63 1016.94 1017.21 1017.45 1017.68 1017.92 1018.17 1018.44 1018.72 1018.98 1019.20 1019.38 1019.49 1019.55 1019.57 1019.56 1019.55 1019.55 1019.57 1019.61 1019.66 1019.71 1019.75 1019.75 1019.73 1019.67 1019.58 1019.49 1019.40 1019.32 1019.28
1013.94 1014.07 1014.18 1014.26 1014.36 1014.49 1014.67 1014.93 1015.26 1015.65 1016.06 1016.47 1016.84 1017.17 1017.44 1017.67 1017.88 1018.08 1018.31 1018.55 1018.82 1019.08 1019.33 1019.54 1019.69 1019.79 1019.83 1019.82 1019.80 1019.77 1019.75 1019.76 1019.77 1019.80 1019.81 1019.81 1019.78 1019.71 1019.61 1019.50 1019.37 1019.25 1019.16
1014.03 1014.20 1014.34 1014.44 1014.54 1014.66 1014.84 1015.10 1015.43 1015.83 1016.27 1016.70 1017.10 1017.44 1017.72 1017.93 1018.11 1018.28 1018.46 1018.67 1018.92 1019.19 1019.47 1019.72 1019.92 1020.06 1020.14 1020.16 1020.14 1020.10 1020.05 1020.01 1019.98 1019.97 1019.95 1019.93 1019.88 1019.80 1019.69 1019.54 1019.39 1019.23 1019.09
1013.94 1014.19 1014.39 1014.55 1014.68 1014.83 1015.03 1015.30 1015.65 1016.08 1016.54 1017.00 1017.43 1017.78 1018.05 1018.25 1018.39 1018.51 1018.65 1018.82 1019.04 1019.31 1019.59 1019.88 1020.13 1020.33 1020.45 1020.51 1020.50 1020.46 1020.39 1020.32 1020.26 1020.21 1020.16 1020.11 1020.04 1019.94 1019.81 1019.65 1019.46 1019.26 1019.08
1013.72 1014.06 1014.35 1014.59 1014.79 1014.99 1015.23 1015.53 1015.91 1016.36 1016.85 1017.34 1017.78 1018.15 1018.42 1018.59 1018.70 1018.78 1018.86 1018.99 1019.17 1019.41 1019.69 1020.00 1020.28 1020.52 1020.69 1020.79 1020.81 1020.78 1020.71 1020.62 1020.54 1020.46 1020.39 1020.31 1020.23 1020.12 1019.97 1019.79 1019.58 1019.35 1019.13
1013.40 1013.85 1014.25 1014.58 1014.86 1015.12 1015.41 1015.75 1016.17 1016.64 1017.15 1017.66 1018.12 1018.49 1018.76 1018.93 1019.01 1019.05 1019.08 1019.15 1019.28 1019.48 1019.74 1020.04 1020.34 1020.60 1020.81 1020.94 1020.99 1020.98 1020.92 1020.84 1020.75 1020.66 1020.57 1020.49 1020.40 1020.28 1020.13 1019.94 1019.72 1019.47 1019.22
1013.05 1013.59 1014.08 1014.50 1014.87 1015.20 1015.54 1015.91 1016.35 1016.84 1017.37 1017.89 1018.36 1018.75 1019.02 1019.19 1019.26 1019.27 1019.26 1019.28 1019.36 1019.51 1019.72 1019.99 1020.28 1020.54 1020.76 1020.92 1021.00 1021.02 1020.98 1020.91 1020.83 1020.74 1020.66 1020.59 1020.50 1020.39 1020.24 1020.05 1019.83 1019.57 1019.31
1012.68 1013.29 1013.86 1014.36 1014.79 1015.18 1015.56 1015.96 1016.40 1016.90 1017.43 1017.96 1018.44 1018.85 1019.14 1019.32 1019.40 1019.40 1019.37 1019.35 1019.38 1019.48 1019.64 1019.86 1020.11 1020.36 1020.58 1020.74 1020.84 1020.88 1020.86 1020.82 1020.75 1020.68 1020.62 1020.55 1020.48 1020.38 1020.25 1020.08 1019.87 1019.62 1019.35
1012.30 1012.95 1013.57 1014.12 1014.60 1015.02 1015.42 1015.83 1016.28 1016.77 1017.30 1017.83 1018.32 1018.75 1019.07 1019.29 1019.39 1019.41 1019.38 1019.35 1019.35 1019.40 1019.51 1019.68 1019.88 1020.09 1020.29 1020.44 1020.55 1020.60 1020.60 1020.57 1020.53 1020.48 1020.43 1020.38 1020.32 1020.25 1020.14 1019.99 1019.80 1019.57 1019.31
1011.88 1012.54 1013.18 1013.76 1014.26 1014.70 1015.11 1015.52 1015.96 1016.44 1016.96 1017.49 1018.00 1018.45 1018.81 1019.07 1019.22 1019.29 1019.29 1019.27 1019.26 1019.29 1019.36 1019.47 1019.63 1019.79 1019.95 1020.09 1020.18 1020.23 1020.25 1020.23 1020.20 1020.16 1020.13 1020.09 1020.05 1019.98 1019.90 1019.77 1019.61 1019.40 1019.17
1011.36 1012.02 1012.65 1013.23 1013.75 1014.20 1014.62 1015.03 1015.46 1015.93 1016.44 1016.97 1017.49 1017.97 1018.38 1018.70 1018.92 1019.05 1019.11 1019.13 1019.14 1019.16 1019.20 1019.29 1019.40 1019.52 1019.64 1019.74 1019.82 1019.86 1019.87 1019.85 1019.82 1019.79 1019.75 1019.72 1019.68 1019.63 1019.55 1019.45 1019.31 1019.14 1018.93
1010.71 1011.34 1011.96 1012.55 1013.07 1013.54 1013.97 1014.39 1014.82 1015.29 1015.80 1016.33 1016.86 1017.38 1017.83 1018.22 1018.51 1018.72 1018.85 1018.93 1018.98 1019.02 1019.07 1019.13 1019.21 1019.30 1019.38 1019.45 1019.50 1019.52 1019.52 1019.49 1019.45 1019.40 1019.36 1019.32 1019.27 1019.22 1019.16 1019.07 1018.96 1018.81 1018.64
1009.90 1010.51 1011.13 1011.71 1012.26 1012.75 1013.21 1013.66 1014.12 1014.60 1015.11 1015.65 1016.20 1016.74 1017.24 1017.68 1018.05 1018.33 1018.54 1018.69 1018.79 1018.87 1018.93 1019.00 1019.06 1019.12 1019.18 1019.22 1019.24 1019.23 1019.21 1019.16 1019.11 1019.05 1018.98 1018.93 1018.88 1018.82 1018.76 1018.69 1018.59 1018.47 1018.33
1008.97 1009.56 1010.18 1010.78 1011.36 1011.90 1012.42 1012.91 1013.41 1013.92 1014.45 1015.01 1015.57 1016.13 1016.66 1017.15 1017.57 1017.92 1018.19 1018.40 1018.56 1018.68 1018.77 1018.84 1018.90 1018.94 1018.97 1018.99 1018.99 1018.96 1018.91 1018.85 1018.78 1018.71 1018.63 1018.56 1018.50 1018.45 1018.39 1018.33 1018.25 1018.15 1018.04
1007.97 1008.56 1009.19 1009.83 1010.46 1011.06 1011.64 1012.20 1012.75 1013.31 1013.87 1014.44 1015.02 1015.58 1016.13 1016.64 1017.09 1017.48 1017.81 1018.06 1018.26 1018.42 1018.53 1018.61 1018.66 1018.70 1018.71 1018.71 1018.68 1018.64 1018.58 1018.51 1018.43 1018.35 1018.27 1018.21 1018.15 1018.10 1018.05 1018.00 1017.95 1017.88 1017.78
1007.00 1007.59 1008.24 1008.92 1009.61 1010.28 1010.94 1011.57 1012.19 1012.79 1013.38 1013.97 1014.55 1015.11 1015.66 1016.16 1016.63 1017.03 1017.37 1017.66 1017.88 1018.05 1018.17 1018.25 1018.30 1018.32 1018.32 1018.30 1018.27 1018.21 1018.15 1018.08 1018.00 1017.93 1017.87 1017.81 1017.77 1017.74 1017.72 1017.70 1017.66 1017.61 1017.54
1006.13 1006.74 1007.41 1008.12 1008.86 1009.61 1010.34 1011.04 1011.72 1012.37 1012.99 1013.59 1014.16 1014.71 1015.24 1015.72 1016.17 1016.56 1016.89 1017.17 1017.39 1017.55 1017.66 1017.73 1017.76 1017.77 1017.75 1017.72 1017.68 1017.62 1017.56 1017.50 1017.44 1017.39 1017.36 1017.33 1017.32 1017.33 1017.34 1017.35 1017.34 1017.32 1017.26
1005.45 1006.06 1006.74 1007.48 1008.26 1009.05 1009.83 1010.59 1011.32 1012.00 1012.65 1013.25 1013.82 1014.35 1014.84 1015.30 1015.70 1016.06 1016.36 1016.61 1016.80 1016.93 1017.01 1017.05 1017.06 1017.04 1017.00 1016.95 1016.90 1016.85 1016.80 1016.75 1016.72 1016.70 1016.70 1016.72 1016.75 1016.79 1016.84 1016.88 1016.91 1016.91 1016.87
1004.96 1005.56 1006.24 1006.98 1007.77 1008.59 1009.41 1010.20 1010.96 1011.67 1012.32 1012.93 1013.49 1013.99 1014.46 1014.87 1015.23 1015.54 1015.79 1015.99 1016.13 1016.22 1016.26 1016.25 1016.22 1016.17 1016.11 1016.04 1015.98 1015.92 1015.88 1015.85 1015.85 1015.86 1015.89 1015.94 1016.01 1016.09 1016.17 1016.24 1016.29 1016.31 1016.28
1004.64 1005.21 1005.87 1006.60 1007.38 1008.20 1009.02 1009.83 1010.60 1011.32 1011.99 1012.59 1013.14 1013.63 1014.06 1014.44 1014.76 1015.01 1015.21 1015.35 1015.43 1015.46 1015.44 1015.39 1015.32 1015.23 1015.14 1015.05 1014.98 1014.92 1014.88 1014.86 1014.87 1014.90 1014.95 1015.02 1015.11 1015.21 1015.30 1015.38 1015.44 1015.46 1015.44
1004.43 1004.97 1005.59 1006.29 1007.05 1007.85 1008.66 1009.46 1010.23 1010.96 1011.63 1012.24 1012.78 1013.26 1013.67 1014.02 1014.29 1014.50 1014.65 1014.72 1014.74 1014.71 1014.64 1014.54 1014.42 1014.30 1014.18 1014.07 1013.98 1013.91 1013.87 1013.85 1013.85 1013.87 1013.92 1013.98 1014.06 1014.15 1014.24 1014.31 1014.35 1014.37 1014.33
1004.28 1004.78 1005.37 1006.03 1006.75 1007.52 1008.31 1009.10 1009.87 1010.60 1011.28 1011.89 1012.44 1012.91 1013.31 1013.63 1013.87 1014.03 1014.12 1014.14 1014.11 1014.02 1013.89 1013.75 1013.59 1013.43 1013.29 1013.17 1013.06 1012.98 1012.92 1012.88 1012.85 1012.84 1012.85 1012.88 1012.92 1012.96 1013.01 1013.04 1013.06 1013.04 1012.99
1004.16 1004.63 1005.18 1005.81 1006.50 1007.24 1008.01 1008.78 1009.55 1010.28 1010.96 1011.58 1012.13 1012.60 1012.99 1013.29 1013.50 1013.62 1013.66 1013.63 1013.53 1013.39 1013.22 1013.04 1012.85 1012.67 1012.52 1012.38 1012.26 1012.16 1012.07 1011.99 1011.92 1011.86 1011.80 1011.76 1011.72 1011.69 1011.67 1011.65 1011.61 1011.56 1011.48
1004.09 1004.54 1005.06 1005.66 1006.32 1007.04 1007.80 1008.56 1009.32 1010.05 1010.74 1011.36 1011.91 1012.37 1012.74 1013.01 1013.18 1013.26 1013.25 1013.16 1013.02 1012.83 1012.62 1012.40 1012.20 1012.01 1011.84 1011.70 1011.57 1011.45 1011.33 1011.20 1011.07 1010.94 1010.79 1010.65 1010.52 1010.40 1010.29 1010.19 1010.10 1010.00 1009.90
1004.12 1004.55 1005.06 1005.64 1006.30 1007.00 1007.74 1008.50 1009.24 1009.96 1010.64 1011.25 1011.78 1012.22 1012.56 1012.79 1012.91 1012.94 1012.87 1012.73 1012.53 1012.30 1012.06 1011.82 1011.60 1011.40 1011.23 1011.09 1010.95 1010.81 1010.65 1010.48 1010.28 1010.06 1009.82 1009.57 1009.33 1009.11 1008.91 1008.73 1008.58 1008.45 1008.33
1004.31 1004.74 1005.25 1005.83 1006.48 1007.17 1007.89 1008.62 1009.34 1010.03 1010.67 1011.24 1011.73 1012.12 1012.41 1012.59 1012.65 1012.61 1012.48 1012.28 1012.03 1011.76 1011.49 1011.23 1011.00 1010.80 1010.63 1010.48 1010.33 1010.17 1009.98 1009.75 1009.48 1009.18 1008.84 1008.50 1008.16 1007.84 1007.56 1007.32 1007.12 1006.97 1006.84
Thickness
5738 5735 5732 5729 5726 5723 5722 5722 5720 5719 5720 5720 5720 5717 5715 5714 5713 5711 5709 5708 5707 5706 5705 5706 5703 5703 5703 5702 5703 5703 5702 5702 5703 5703 5704 5707 5708 5708 5708 5709 5710 5711 5711
5735 5732 5729 5727 5725 5722 5721 5720 5719 5719 5719 5719 5718 5716 5714 5714 5712 5709 5706 5705 5704 5703 5703 5701 5702 5700 5698 5697 5696 5696 5698 5698 5698 5698 5696 5696 5700 5702 5706 5705 5705 5706 5707
5735 5731 5729 5727 5725 5723 5722 5723 5720 5719 5719 5717 5717 5714 5712 5711 5709 5707 5705 5703 5701 5700 5698 5697 5696 5694 5695 5694 5692 5691 5690 5691 5693 5694 5693 5691 5692 5696 5700 5700 5700 5700 5701
5740 5734 5731 5728 5726 5725 5724 5722 5720 5719 5718 5717 5717 5714 5712 5710 5707 5706 5704 5700 5698 5696 5695 5693 5691 5690 5691 5688 5689 5688 5687 5685 5688 5689 5688 5687 5688 5685 5689 5694 5696 5695 5695
5744 5738 5735 5731 5730 5728 5725 5723 5721 5719 5717 5716 5713 5712 5712 5709 5707 5704 5699 5698 5695 5693 5691 5689 5688 5686 5686 5684 5682 5681 5681 5683 5682 5683 5683 5683 5683 5683 5680 5682 5686 5690 5692
5747 5742 5739 5735 5731 5730 5727 5725 5720 5717 5715 5714 5712 5710 5708 5706 5703 5700 5697 5696 5694 5692 5689 5687 5684 5682 5681 5679 5677 5676 5676 5676 5674 5675 5677 5677 5677 5677 5677 5676 5677 5680 5684
5751 5745 5740 5735 5732 5730 5728 5725 5721 5717 5715 5713 5711 5709 5706 5703 5700 5699 5696 5695 5694 5691 5685 5685 5681 5679 5676 5674 5673 5671 5671 5670 5668 5668 5670 5671 5671 5671 5670 5670 5672 5673 5677
5756 5750 5745 5740 5736 5733 5729 5726 5722 5718 5715 5713 5710 5708 5706 5705 5703 5698 5697 5694 5692 5689 5683 5680 5678 5675 5673 5671 5669 5669 5667 5665 5663 5663 5662 5662 5664 5664 5664 5664 5663 5665 5670
5759 5754 5749 5744 5740 5736 5732 5729 5723 5719 5716 5714 5710 5707 5705 5703 5701 5696 5694 5693 5688 5686 5681 5678 5675 5673 5670 5667 5665 5665 5662 5660 5660 5660 5659 5658 5659 5658 5658 5658 5657 5655 5657
5762 5758 5753 5747 5744 5739 5735 5730 5726 5721 5718 5714 5711 5709 5705 5701 5698 5696 5692 5689 5685 5682 5679 5676 5673 5670 5667 5664 5662 5661 5659 5656 5655 5653 5652 5650 5654 5653 5652 5651 5651 5651 5649
5765 5760 5756 5751 5746 5742 5737 5731 5727 5722 5718 5716 5712 5708 5705 5701 5697 5694 5690 5687 5684 5680 5677 5674 5671 5668 5665 5662 5659 5658 5655 5653 5652 5650 5649 5646 5645 5646 5646 5646 5645 5645 5644
5769 5764 5758 5752 5747 5743 5739 5733 5729 5724 5720 5716 5712 5708 5704 5701 5696 5693 5689 5685 5681 5678 5675 5672 5668 5666 5663 5660 5657 5654 5653 5650 5648 5646 5644 5643 5642 5639 5639 5639 5639 5638 5637
5768 5764 5758 5752 5748 5744 5740 5736 5731 5727 5723 5718 5713 5708 5704 5699 5695 5692 5688 5684 5680 5677 5673 5670 5666 5663 5661 5658 5655 5652 5650 5648 5645 5643 5640 5639 5636 5634 5634 5631 5632 5633 5633
5767 5763 5757 5752 5749 5745 5741 5737 5732 5729 5724 5718 5713 5708 5704 5699 5695 5691 5686 5682 5678 5675 5672 5668 5665 5662 5659 5656 5653 5650 5647 5644 5642 5639 5637 5635 5632 5630 5628 5627 5625 5624 5624
5765 5762 5757 5752 5748 5744 5740 5737 5732 5728 5723 5717 5712 5708 5703 5699 5694 5689 5685 5681 5677 5674 5670 5667 5663 5660 5657 5655 5651 5647 5645 5642 5639 5636 5634 5632 5628 5624 5621 5621 5621 5619 5618
5766 5763 5758 5754 5749 5745 5741 5736 5731 5727 5722 5716 5712 5707 5702 5698 5693 5688 5684 5680 5676 5672 5669 5665 5662 5659 5657 5651 5644 5640 5641 5639 5636 5633 5631 5628 5624 5620 5614 5611 5609 5607 5608
5769 5765 5761 5757 5752 5748 5743 5736 5732 5726 5720 5715 5711 5706 5701 5696 5692 5688 5683 5679 5675 5671 5667 5663 5660 5657 5653 5646 5640 5635 5634 5635 5633 5630 5627 5626 5626 5618 5616 5612 5606 5604 5601
5773 5768 5764 5759 5754 5750 5743 5737 5731 5725 5719 5714 5710 5705 5700 5695 5690 5686 5681 5677 5673 5669 5665 5661 5658 5654 5651 5644 5638 5633 5631 5632 5630 5627 5624 5621 5619 5617 5611 5608 5607 5606 5605
5776 5772 5768 5762 5756 5749 5743 5736 5729 5724 5718 5714 5709 5705 5699 5694 5689 5684 5679 5675 5671 5667 5663 5660 5656 5652 5648 5641 5635 5629 5631 5631 5628 5626 5623 5619 5616 5610 5603 5600 5601 5601 5601
5776 5771 5767 5761 5753 5747 5741 5734 5728 5723 5718 5714 5709 5704 5698 5692 5687 5682 5677 5674 5669 5665 5661 5658 5655 5651 5647 5640 5633 5626 5629 5629 5627 5625 5622 5616 5611 5606 5599 5597 5597 5596 5596
5771 5768 5763 5756 5751 5745 5738 5731 5727 5722 5719 5714 5707 5701 5696 5690 5685 5680 5675 5670 5666 5663 5658 5656 5653 5649 5645 5639 5631 5625 5624 5625 5624 5623 5622 5620 5610 5602 5595 5590 5591 5591 5587
5765 5761 5755 5751 5746 5741 5735 5729 5724 5722 5717 5710 5704 5698 5692 5688 5684 5677 5671 5667 5663 5659 5655 5652 5650 5648 5644 5638 5631 5624 5619 5616 5617 5617 5617 5615 5605 5598 5592 5587 5586 5582 5577
5757 5755 5750 5744 5740 5736 5732 5726 5722 5718 5712 5705 5699 5694 5689 5684 5680 5675 5669 5664 5660 5658 5656 5653 5650 5647 5645 5639 5630 5623 5618 5612 5610 5613 5610 5604 5597 5592 5589 5585 5581 5576 5577
5749 5748 5744 5738 5733 5730 5727 5723 5718 5713 5706 5699 5694 5690 5685 5681 5676 5671 5669 5664 5661 5657 5654 5650 5647 5644 5641 5637 5632 5626 5620 5611 5607 5606 5604 5597 5592 5587 5586 5584 5581 5578 5578
5740 5739 5735 5731 5727 5724 5720 5717 5711 5706 5700 5695 5690 5686 5682 5678 5673 5668 5666 5663 5659 5656 5649 5647 5643 5639 5635 5631 5623 5619 5617 5613 5609 5602 5600 5599 5597 5594 5590 5588 5585 5581 5578
5729 5727 5726 5723 5719 5716 5712 5708 5704 5700 5694 5689 5684 5681 5678 5673 5669 5665 5662 5657 5652 5647 5641 5636 5631 5631 5626 5619 5614 5608 5603 5598 5592 5589 5594 5594 5593 5591 5589 5586 5583 5579 5576